Find Starlink 32905

NORAD ID: 62923 Int'l Des: 2025-027 Owner: SPXS Country: US Constellation: starlink operational
LEOCIRCULAR

当前视图

正在加载3D地球...

About Starlink 32905

Starlink 32905 (NORAD 62923) is a starlink constellation satellite (v2 mini) launched Feb 8, 2025 by SPXS of US. It operates in LEO, CIRCULAR orbit with a mass of 730.00 kg.

关于 Starlink 32905

正在加载描述...

即将过境

Passes for default location (London). Set your location on the main map for personalized predictions.

高度历史

Loading altitude history...

两行轨道根数

1 62923U 25027S 26170.65153160 .00011014 00000-0 40900-3 0 9994
2 62923 42.9994 273.2527 0001464 272.0709 87.9975 15.27592426 77137
Epoch: Jun 19, 2026 • Age: 14 hours

当前状态

高度 482.6 km
速度 7.63 km/s
星下点 18.34°N, 66.05°W
发射日期 Feb 8, 2025
运行时间 1.3 years
类型 internet

技术详情

分类 Payload
质量 730.00 kg
干质量 700.00 kg
总质量 730.00 kg
长度 0.30 m
直径 4.10 m
跨度 29.00 m
形状 Box + pan
制造商 SPXS
平台类型 Starlink V2M
阶段状态 In Orbit
所有者/国家 SPXS/US

Most Searched